Location: Cabeza de los Veneras
(40.2000°N, 5.2000°W)
Time: 13:02:51
(UTC+00:00)

IRS-P2 Rocket - Pass Details

Date: 18 April 2024
Orbit: 794 x 875 km, 98.9° (Epoch: 27 May)

Event Time Altitude Azimuth Distance (km) Brightness Sun altitude
Exits shadow 21:24:09 67° 139° (SE) 870 4.4 -24.4°
Maximum altitude 21:24:50 79° 75° (ENE) 820 4.5 -24.5°
Drops below altitude 10° 21:30:09 10° 349° (NNW) 2,407 7.8 -25.3°
Sets 21:32:31 0° 348° (NNW) 3,353 8.7 -25.6°
